MKJP

Details ICAO MKJP (KIN)
Name Norman Manley Intl
Region Jamaica
Timezone Unknown (UTC+0.0)
Plans Departing 510
Arriving 470
Stats Elevation 10 ft / 3 m (AMSL)
Location 17.935665° -76.787560°
Runways 1
Magnetic Variation 7.590° W
Sunrise 2018-05-21 10:34:03 UTC / 2018-05-21 10:34:03 Local
Sunset 2018-05-21 23:36:19 UTC / 2018-05-21 23:36:19 Local
Advertisement - Login to hide

Runways

ID Width Length Bearing (true) Bearing (mag) Surface Threshold Offset Overrun Length
12 150 ft / 46 m 8,912 ft / 2,717 m 112.09° 119.68° Asphalt 0 ft / 0 m 0 ft / 0 m
30 150 ft / 46 m 8,912 ft / 2,717 m 292.10° 299.69° Asphalt 0 ft / 0 m 0 ft / 0 m

Approach Navaids

Runway Type Ident Frequency Range Bearing (true) Bearing (mag) Slope Elevation
12 Localiser IMLY 109.10 MHz 18 nm / 33 km 115.09° 122.68° - 10 ft / 3 m (AMSL)
12 Glidescope IMLY 109.10 MHz 10 nm / 19 km 115.09° 122.68° 3.00° 8 ft / 2 m (AMSL)

Map

Weather


0- 5 10 15 20 25 30 35+ Temperature / ° C

Clouds and Precipitation
Forecast for 2018-05-21 06:00 UTC. Updated 2 hours ago

Ground ~20,000 ft ~40,000 ft Winds

METAR

MKJP 210700Z 11011KT 9999 FEW020 27/25 Q1011

TAF

TAF MKJP 2106/2206 12010KT 9999 FEW020 BECMG 2113/2115 13020KT SCT020 FEW022CB TEMPO 2115/2120 11010KT SCT020 FEW022CB

Frequencies

Recorded 127.70 MHz ATIS
Tower 118.65 MHz MANLEY TWR
Ground 121.70 MHz GND
Approach 120.60 MHz MANLEY APP
Warning: Do not use this data for real-world aviation or navigation. No guarantee of current accuracy is given.